AMC-15

Last updated on Tue Sep 22 2026 00:03:10 GMT+0000 (Coordinated Universal Time)

1 28446U 04041A 26264.51175058 -.00000093 00000+0 00000+0 0 9996 2 28446 0.0065 236.0343 0001964 286.0154 277.5405 1.00272466 80268
UTC large
Height (km)
Speed (km/s)
/
Latitude / Longitude
Inclination (degrees)
Orbital Period (minutes)
Azimuth
Elevation
Range (km)
Doppler Factor

Next 0 passes for location: London (51.5072 / 0.1276)

No passes found over London.
AMC-15